Delta Virtual Airport Information Service

London Heathrow Airport

ICAO: EGLL Country: United Kingdom
Latitude: 51.4775 Longitude: -0.46138
Latest Arrival : BAW7065651 (EGNT-EGLL) Latest Departure : DAL2 (EGLL-KJFK)


WX CaptureLIVE
Data provided by noaa.gov | Fetched at 09:05:19

METAR : EGLL 041350Z AUTO 22010KT 190V270 9999 NCD 24/05 Q1015

TAF : EGLL 041052Z 0412/0518 23010KT 9999 FEW045 PROB40 TEMPO 0423/0508 BKN014


Runway Data for EGLL
Data provided by openaviationdata.com

Runway ID Mag Var Hdg Length Elevation Surface ILS Freq ILS Id ILS Slope
09L -1 90° 13160 ft 83 ft Asphalt 110.3 IAA 3
09R -1 91° 12396 ft 83 ft Asphalt 109.5 IBB 3
27L -1 271° 12396 ft 83 ft Asphalt 109.5 ILL 3
27R -1 270° 13160 ft 83 ft Asphalt 110.3 IRR 3

London Heathrow Airport, United Kingdom
Use only for reference purposes



Not for navigational purposes.